[sarex] Re: ISS UK Pass 13.00utc

Nigel Gunn G8IFF/W8IFF nigel at ngunn.net
Mon Aug 3 06:21:28 PDT 2009


David.

Do there agree with your "latest keps"?

ISS (ZARYA)
1 25544U 98067A   09213.83477708 +.00133469 +00000-0 +92643-3 0 03334
2 25544 051.6394 072.4795 0007331 277.0111 189.2970 15.73478508613146


David Barber wrote:

> 
> Latest Keps would appear to be wrong, a signal being received nearly 1
> minute after predicted LOS on this and previous pass.



More information about the SAREX mailing list